DW8219 Weather Reports


Display with metric or nautical units.
time (UTC)temp
F
wind
direction
speed
MPH
gust
MPH
rain 1hr
in
rain 24hr
in
rain mn
in
humidity
%
barometer
mb
20260901105905 70 340 0.0 0.0 0.00 0.14 0.13 95 1014.7
20260901104904 70 340 0.0 0.0 0.00 0.14 0.13 95 1014.5
20260901104404 70 340 0.0 0.0 0.00 0.14 0.13 95 1014.6
20260901103404 69 340 0.0 0.0 0.00 0.14 0.13 95 1014.6
20260901102906 69 340 0.0 0.0 0.00 0.14 0.13 95 1014.6
20260901102404 69 340 0.0 0.0 0.00 0.14 0.13 95 1014.5
20260901101906 69 26 0.0 0.0 0.00 0.14 0.13 95 1014.3
20260901101404 69 26 0.0 0.0 0.00 0.14 0.13 95 1014.2
20260901100905 69 26 0.0 0.0 0.00 0.14 0.13 95 1014.2
20260901100405 69 26 0.0 0.0 0.00 0.14 0.13 95 1014.3
20260901095905 69 26 0.0 0.0 0.00 0.14 0.13 95 1014.4
20260901095405 69 26 0.0 0.0 0.00 0.14 0.13 95 1014.4
20260901094904 69 26 0.0 0.0 0.00 0.14 0.13 95 1014.4
20260901094405 69 26 0.0 0.0 0.00 0.14 0.13 95 1014.3
20260901093906 69 26 0.0 0.0 0.00 0.14 0.13 95 1014.3
20260901093405 69 26 0.0 0.0 0.00 0.14 0.13 95 1014.3
20260901092905 69 26 0.0 0.0 0.00 0.14 0.13 95 1014.3
20260901092403 69 26 0.0 0.0 0.00 0.14 0.13 94 1014.4
20260901091905 69 26 0.0 0.0 0.00 0.14 0.13 95 1014.4
20260901091403 69 26 0.0 0.0 0.00 0.14 0.13 94 1014.4
20260901090904 69 26 0.0 0.0 0.00 0.14 0.13 94 1014.4
20260901085403 69 26 0.0 0.0 0.00 0.14 0.13 94 1014.7
20260901084903 69 24 0.0 0.0 0.01 0.14 0.13 94 1014.8
20260901084405 69 24 0.0 0.0 0.01 0.14 0.13 94 1014.8
20260901083903 69 24 0.0 0.0 0.01 0.14 0.13 94 1014.7
20260901082904 69 24 0.0 0.0 0.01 0.14 0.13 94 1014.7
20260901082405 70 24 0.0 0.0 0.01 0.14 0.13 94 1014.7
20260901081904 69 24 0.0 0.0 0.01 0.14 0.13 94 1014.7
20260901081404 69 24 0.0 0.0 0.01 0.14 0.13 94 1014.7
20260901080404 69 24 0.0 0.0 0.01 0.14 0.13 94 1014.8
20260901075905 69 24 0.0 0.0 0.01 0.14 0.13 94 1014.8
20260901075405 69 24 0.0 0.0 0.01 0.14 0.13 94 1014.9
20260901074904 69 24 0.0 0.0 0.00 0.13 0.12 94 1015.0
20260901073904 69 24 0.0 0.0 0.00 0.13 0.12 94 1015.0
20260901073404 69 24 0.0 0.0 0.00 0.13 0.12 94 1015.1
20260901072904 69 24 0.0 0.0 0.00 0.13 0.12 94 1014.9
20260901072405 69 24 0.0 0.0 0.00 0.13 0.12 93 1015.0
20260901071404 69 24 0.0 1.0 0.00 0.13 0.12 93 1015.3
20260901070904 69 317 0.0 1.0 0.00 0.13 0.12 93 1015.2
20260901070404 69 273 0.0 0.0 0.00 0.13 0.12 93 1015.2
20260901065904 69 273 0.0 0.0 0.00 0.13 0.12 93 1015.2
20260901065404 70 232 1.0 5.0 0.00 0.13 0.12 93 1015.1
20260901064904 70 205 0.0 0.0 0.00 0.13 0.12 93 1015.1
20260901064404 70 205 0.0 0.0 0.00 0.13 0.12 93 1015.1
20260901063404 70 198 0.0 0.0 0.00 0.13 0.12 92 1015.2
20260901062905 70 201 0.0 0.0 0.00 0.13 0.12 93 1015.3
20260901061904 70 190 0.0 0.0 0.00 0.13 0.12 92 1015.3
20260901061404 70 174 0.0 1.0 0.00 0.13 0.12 92 1015.3
20260901060904 70 185 0.0 0.0 0.01 0.13 0.12 92 1015.5
20260901060405 70 191 0.0 0.0 0.01 0.13 0.12 92 1015.5
20260901055906 69 191 0.0 0.0 0.02 0.13 0.12 92 1015.6
20260901055404 69 190 1.0 5.0 0.02 0.13 0.12 92 1015.5
20260901054905 69 192 0.0 3.0 0.02 0.13 0.12 92 1015.7
20260901054405 69 184 0.0 0.0 0.03 0.13 0.12 92 1015.8
20260901053904 69 184 0.0 3.0 0.05 0.13 0.12 92 1015.7
20260901052905 69 158 1.0 3.0 0.11 0.13 0.12 92 1015.7
20260901051405 70 174 1.0 3.0 0.12 0.13 0.12 92 1016.0
20260901050905 70 171 0.0 0.0 0.11 0.12 0.11 92 1016.1
20260901050404 70 171 0.0 0.0 0.11 0.12 0.11 91 1016.1
20260901045905 70 171 1.0 3.0 0.09 0.11 0.10 91 1016.0
20260901045404 70 169 1.0 3.0 0.09 0.11 0.10 91 1016.1
20260901044906 70 170 1.0 3.0 0.09 0.11 0.10 91 1016.0
20260901044405 70 174 0.0 0.0 0.08 0.10 0.09 90 1016.2
20260901043904 70 174 0.0 0.0 0.06 0.08 0.07 89 1016.2
20260901043405 70 174 0.0 0.0 0.02 0.04 0.03 89 1016.1
20260901042905 70 174 0.0 0.0 0.00 0.02 0.01 88 1016.1
20260901042405 71 178 0.0 2.0 0.00 0.02 0.01 88 1016.0
20260901041904 71 163 1.0 3.0 0.00 0.02 0.01 88 1016.0
20260901041405 71 164 0.0 3.0 0.00 0.01 0.00 88 1016.1
20260901040905 71 182 1.0 3.0 0.00 0.01 0.00 88 1016.1
20260901035905 71 170 1.0 3.0 0.00 0.01 0.01 87 1016.1
20260901035405 71 174 2.0 3.0 0.00 0.01 0.01 87 1016.2
20260901034905 71 185 1.0 9.0 0.00 0.01 0.01 87 1016.2
20260901034405 71 162 2.0 6.0 0.00 0.01 0.01 86 1016.2
20260901033905 71 191 2.0 3.0 0.00 0.01 0.01 86 1016.2
20260901033405 71 183 1.0 3.0 0.00 0.01 0.01 86 1016.3
20260901032905 71 171 1.0 3.0 0.00 0.01 0.01 86 1016.3
20260901032404 71 163 1.0 3.0 0.00 0.01 0.01 85 1016.4
20260901031903 71 186 0.0 3.0 0.00 0.01 0.01 85 1016.3
20260901031404 71 177 2.0 5.0 0.00 0.01 0.01 85 1016.4
20260901030404 71 177 2.0 8.0 0.00 0.01 0.01 85 1016.4
20260901025904 71 180 1.0 5.0 0.00 0.01 0.01 85 1016.5
20260901025404 71 193 1.0 3.0 0.00 0.01 0.01 84 1016.5
20260901024404 71 174 1.0 3.0 0.00 0.01 0.01 84 1016.7
20260901023905 71 189 2.0 3.0 0.00 0.01 0.01 84 1016.8
20260901022904 71 183 2.0 6.0 0.00 0.01 0.01 84 1016.9
20260901022404 71 203 1.0 3.0 0.00 0.01 0.01 84 1017.0
20260901021904 71 177 0.0 3.0 0.00 0.01 0.01 84 1016.9
20260901021405 71 177 1.0 5.0 0.00 0.01 0.01 84 1016.9
20260901020404 71 201 0.0 3.0 0.00 0.01 0.01 84 1016.9
20260901015904 71 197 0.0 3.0 0.00 0.01 0.01 84 1016.9
20260901015404 72 183 2.0 5.0 0.00 0.01 0.01 84 1016.9
20260901014404 72 195 2.0 6.0 0.00 0.02 0.01 84 1017.0
20260901013904 72 195 1.0 3.0 0.00 0.02 0.01 84 1017.0
20260901013405 72 195 0.0 2.0 0.01 0.03 0.01 84 1017.0
20260901012905 72 179 1.0 5.0 0.01 0.03 0.01 84 1017.0
20260901012405 72 183 1.0 3.0 0.01 0.03 0.01 84 1017.0
20260901011905 72 175 1.0 3.0 0.01 0.03 0.01 84 1016.9
20260901011404 72 191 1.0 3.0 0.01 0.03 0.01 85 1016.9
20260901010904 72 190 1.0 3.0 0.01 0.04 0.01 84 1016.9
20260901010404 72 193 0.0 2.0 0.01 0.04 0.01 84 1016.8
20260901004905 72 190 1.0 3.0 0.01 0.04 0.01 83 1016.7
20260901004404 72 197 1.0 3.0 0.01 0.04 0.01 82 1016.7
20260901003905 72 186 1.0 3.0 0.01 0.04 0.01 81 1016.7
20260901003405 73 200 0.0 0.0 0.00 0.03 0.00 79 1016.6
20260901002905 73 202 0.0 3.0 0.00 0.03 0.00 78 1016.6
20260901002405 73 182 1.0 2.0 0.00 0.03 0.00 76 1016.6
20260901001905 73 181 1.0 3.0 0.00 0.03 0.00 76 1016.6
20260901001404 73 194 0.0 3.0 0.00 0.03 0.00 75 1016.6
20260901000904 73 181 0.0 0.0 0.00 0.03 0.00 75 1016.5
20260831235904 73 198 1.0 3.0 0.00 0.03 0.00 75 1016.6
20260831235404 73 178 2.0 3.0 0.00 0.03 0.00 75 1016.7
20260831234904 73 182 0.0 2.0 0.00 0.03 0.00 75 1016.7
20260831234405 74 182 0.0 2.0 0.00 0.03 0.00 75 1016.7
20260831233405 74 186 1.0 3.0 0.00 0.03 0.00 74 1016.7
20260831232905 74 167 0.0 2.0 0.00 0.03 0.00 74 1016.8
20260831232406 74 174 0.0 3.0 0.00 0.03 0.00 74 1016.8
20260831231905 74 210 0.0 0.0 0.00 0.03 0.00 74 1016.8
20260831231404 74 167 0.0 1.0 0.00 0.03 0.00 74 1016.8
20260831230905 74 167 1.0 3.0 0.00 0.03 0.00 73 1016.9
20260831225905 74 165 1.0 3.0 0.00 0.03 0.00 73 1017.0
20260831225405 74 185 1.0 2.0 0.00 0.03 0.00 73 1017.0
20260831224405 74 191 0.0 2.0 0.00 0.03 0.00 73 1016.9
20260831223905 74 157 2.0 3.0 0.00 0.03 0.00 73 1016.9
20260831223405 74 183 1.0 3.0 0.00 0.03 0.00 73 1016.9
20260831222905 74 199 0.0 3.0 0.00 0.03 0.00 73 1017.0
20260831222405 74 178 1.0 5.0 0.00 0.03 0.00 73 1017.0
20260831221405 74 200 0.0 6.0 0.00 0.03 0.00 73 1016.9
20260831220905 74 192 2.0 5.0 0.00 0.03 0.00 73 1016.9
20260831215406 74 208 2.0 3.0 0.00 0.03 0.00 74 1017.1
20260831214905 74 186 1.0 3.0 0.00 0.03 0.00 73 1017.1
20260831214404 74 177 1.0 6.0 0.00 0.03 0.00 73 1017.1
20260831213905 74 156 1.0 3.0 0.00 0.03 0.00 73 1017.1
20260831213405 74 161 1.0 3.0 0.00 0.03 0.00 74 1017.1
20260831212906 74 175 1.0 3.0 0.00 0.03 0.00 73 1017.1
20260831211903 74 170 1.0 7.0 0.00 0.03 0.00 74 1017.0
20260831210404 74 163 0.0 1.0 0.00 0.03 0.00 74 1017.4
20260831205904 74 186 0.0 8.0 0.00 0.03 0.00 73 1017.4
20260831205405 74 185 1.0 3.0 0.00 0.03 0.00 73 1017.5
20260831204905 74 181 1.0 5.0 0.00 0.03 0.00 72 1017.4
20260831204403 75 163 2.0 8.0 0.00 0.03 0.00 73 1017.3
20260831203405 75 154 2.0 9.0 0.00 0.03 0.00 73 1017.2
20260831202904 75 146 3.0 6.0 0.00 0.03 0.00 72 1017.1
20260831202404 74 209 2.0 9.0 0.00 0.03 0.00 73 1017.2
20260831201904 74 180 4.0 9.0 0.00 0.03 0.00 72 1017.3
20260831201403 74 185 4.0 10.0 0.00 0.03 0.00 72 1017.6
20260831200903 74 184 2.0 10.0 0.00 0.03 0.00 73 1017.6
20260831200403 74 207 5.0 10.0 0.00 0.03 0.00 73 1017.7
20260831195903 74 180 4.0 12.0 0.00 0.03 0.00 73 1017.7
20260831195404 74 190 3.0 12.0 0.00 0.03 0.00 71 1017.8
20260831194905 74 175 6.0 12.0 0.00 0.03 0.00 72 1017.8
20260831193904 74 190 4.0 10.0 0.00 0.03 0.00 71 1017.8
20260831193404 75 176 6.0 12.0 0.00 0.03 0.00 69 1017.8
20260831192904 75 182 6.0 13.0 0.00 0.03 0.00 67 1017.8
20260831191904 76 175 3.0 10.0 0.00 0.03 0.00 66 1017.8
20260831191404 76 179 6.0 12.0 0.00 0.03 0.00 65 1017.8
20260831190904 77 193 5.0 12.0 0.00 0.03 0.00 64 1018.0
20260831190404 77 191 2.0 5.0 0.00 0.03 0.00 64 1017.8
20260831185904 77 171 1.0 3.0 0.00 0.03 0.00 64 1017.9
20260831185404 77 176 1.0 3.0 0.00 0.03 0.00 64 1017.9
20260831184403 77 172 1.0 5.0 0.00 0.03 0.00 64 1017.9
20260831183904 77 163 1.0 6.0 0.00 0.03 0.00 64 1018.0
20260831183404 77 184 1.0 3.0 0.00 0.03 0.00 63 1018.0
20260831182904 78 183 1.0 3.0 0.00 0.03 0.00 65 1018.0
20260831182404 78 255 2.0 3.0 0.00 0.03 0.00 66 1018.0
20260831181904 77 228 1.0 3.0 0.00 0.03 0.00 66 1017.9
20260831181404 77 169 0.0 1.0 0.00 0.03 0.00 64 1018.1
20260831180904 77 177 0.0 3.0 0.00 0.03 0.00 63 1018.1
20260831180404 77 102 1.0 3.0 0.00 0.03 0.00 64 1018.2
20260831175904 77 161 1.0 2.0 0.00 0.03 0.00 64 1018.3
20260831175404 76 142 0.0 1.0 0.00 0.03 0.00 64 1018.3
20260831174405 77 123 0.0 2.0 0.00 0.03 0.00 64 1018.4
20260831173905 77 104 0.0 2.0 0.00 0.03 0.00 65 1018.5
20260831173405 76 115 0.0 3.0 0.00 0.03 0.00 64 1018.5
20260831172905 77 121 2.0 3.0 0.00 0.03 0.00 63 1018.3
20260831172404 78 134 1.0 5.0 0.00 0.03 0.00 62 1018.3
20260831171904 78 133 1.0 5.0 0.00 0.03 0.00 66 1018.4
20260831171404 77 114 1.0 3.0 0.00 0.03 0.00 65 1018.5
20260831170904 76 135 1.0 2.0 0.00 0.03 0.00 66 1018.6
20260831170404 77 101 1.0 3.0 0.00 0.03 0.00 65 1018.6
20260831165904 77 87 2.0 6.0 0.00 0.03 0.00 63 1018.4
20260831165405 77 131 0.0 3.0 0.00 0.03 0.00 66 1018.4
20260831164404 76 47 1.0 3.0 0.00 0.03 0.00 67 1018.6
20260831163904 77 83 1.0 5.0 0.00 0.03 0.00 64 1018.6
20260831163404 77 90 0.0 3.0 0.00 0.03 0.00 72 1018.6
20260831162904 76 103 1.0 3.0 0.00 0.03 0.00 66 1018.5
20260831162404 78 161 0.0 3.0 0.00 0.03 0.00 70 1018.5
20260831161905 77 136 2.0 5.0 0.00 0.03 0.00 66 1018.5
20260831161405 76 144 0.0 1.0 0.00 0.03 0.00 72 1018.6
20260831160905 76 163 0.0 1.0 0.00 0.03 0.00 66 1018.7
20260831160405 76 143 1.0 3.0 0.00 0.03 0.00 69 1018.8
20260831155904 75 132 0.0 3.0 0.00 0.03 0.00 68 1018.7
20260831154904 75 148 2.0 5.0 0.00 0.03 0.00 70 1018.7
20260831154404 75 183 0.0 1.0 0.00 0.03 0.00 73 1018.8
20260831153905 75 104 1.0 3.0 0.00 0.03 0.00 69 1019.0
20260831152905 75 226 1.0 5.0 0.00 0.03 0.00 70 1019.0
20260831152403 74 51 0.0 3.0 0.00 0.03 0.00 73 1018.9
20260831151905 74 111 1.0 2.0 0.00 0.03 0.00 70 1018.9
20260831151403 74 87 1.0 2.0 0.00 0.03 0.00 71 1018.9
20260831150904 74 180 1.0 3.0 0.00 0.03 0.00 71 1018.9
20260831150404 74 166 2.0 5.0 0.00 0.03 0.00 73 1018.9
20260831145404 73 133 1.0 2.0 0.00 0.03 0.00 74 1019.1
20260831144904 73 105 1.0 2.0 0.00 0.03 0.00 75 1019.1
20260831144403 73 23 0.0 2.0 0.00 0.03 0.00 75 1019.2
20260831143404 72 12 1.0 3.0 0.00 0.03 0.00 76 1019.2
20260831142404 73 50 2.0 6.0 0.00 0.03 0.00 76 1019.2
20260831141905 72 51 0.0 0.0 0.00 0.03 0.00 77 1019.2
20260831141403 71 9 0.0 0.0 0.00 0.03 0.00 78 1019.1
20260831140404 71 26 0.0 0.0 0.00 0.03 0.00 78 1019.1
20260831135904 71 12 0.0 0.0 0.00 0.03 0.00 79 1019.0
20260831134904 70 22 0.0 0.0 0.00 0.03 0.00 80 1019.0
20260831134404 70 19 0.0 0.0 0.00 0.03 0.00 81 1019.0
20260831133904 70 45 0.0 0.0 0.00 0.03 0.00 80 1018.9
20260831133404 70 31 0.0 0.0 0.00 0.03 0.00 81 1018.9
20260831132904 70 30 0.0 0.0 0.00 0.03 0.00 81 1018.9
20260831132404 70 20 0.0 0.0 0.00 0.03 0.00 80 1018.8
20260831131904 70 10 0.0 0.0 0.00 0.03 0.00 82 1018.8
20260831131404 70 6 0.0 0.0 0.00 0.03 0.00 81 1018.9
20260831130404 69 5 0.0 0.0 0.00 0.03 0.00 82 1019.0
20260831125404 69 6 0.0 0.0 0.00 0.03 0.00 83 1018.9
20260831124404 69 355 0.0 0.0 0.00 0.03 0.00 83 1019.0
20260831123904 69 359 0.0 0.0 0.00 0.03 0.00 84 1019.1
20260831123404 69 355 0.0 0.0 0.00 0.03 0.00 85 1019.0
20260831122404 69 33 0.0 0.0 0.00 0.03 0.00 84 1018.9
20260831121906 69 33 0.0 0.0 0.00 0.03 0.00 85 1018.9
20260831121404 69 32 0.0 0.0 0.00 0.03 0.00 84 1018.9
20260831120904 69 339 0.0 0.0 0.00 0.03 0.00 84 1018.9
20260831115904 69 338 0.0 0.0 0.00 0.03 0.00 84 1018.7
20260831115405 68 4 0.0 0.0 0.00 0.03 0.00 85 1018.8
20260831114904 68 355 0.0 0.0 0.00 0.03 0.00 86 1018.8
20260831114405 68 346 0.0 0.0 0.00 0.03 0.00 86 1018.7
20260831113904 68 345 0.0 0.0 0.00 0.03 0.00 86 1018.6
20260831113404 68 341 0.0 0.0 0.00 0.03 0.00 86 1018.4
20260831112904 68 341 0.0 0.0 0.00 0.03 0.00 86 1018.3
20260831112404 68 338 0.0 0.0 0.00 0.03 0.00 86 1018.3
20260831111904 68 325 0.0 0.0 0.00 0.03 0.00 87 1018.2
20260831111405 68 325 0.0 0.0 0.00 0.03 0.00 87 1018.2
20260831110404 68 355 0.0 0.0 0.00 0.03 0.00 87 1018.3